Regional Weather Roundup
Issued by NWS

Home | Current Version | Previous Version | Graphics & Text | Print | Product List | Glossary On
Versions: 1 2 3 4 5 6 7 8 9 10 11 12 13 14 15 16 17 18 19 20 21 22 23 24 25 26 27 28 29 30 31 32 33 34 35 36 37 38 39 40 41 42 43 44 45 46 47 48 49 50
000
ASUS43 KBIS 262010
RWRND

NORTH DAKOTA REGIONAL WEATHER ROUNDUP
NATIONAL WEATHER SERVICE BISMARCK ND
200 PM CST THU FEB 26 2015

NOTE: "FAIR" INDICATES FEW OR NO CLOUDS BELOW 12,000 FEET WITH NO
SIGNIFICANT WEATHER AND/OR OBSTRUCTIONS TO VISIBILITY.


NDZ001>003-009>011-017-262100-
NORTHWEST NORTH DAKOTA

CITY           SKY/WX    TMP DP  RH WIND       PRES   REMARKS
WILLISTON      SUNNY      7  -5  57 NW8       30.57F WCI  -6
MINOT          SUNNY      5  -7  57 W14       30.53F WCI -12
MINOT AFB      SUNNY      4  -4  69 NW15      30.53F WCI -15
$$

NDZ018>021-031>035-040>046-262100-
SOUTHWEST NORTH DAKOTA

CITY           SKY/WX    TMP DP  RH WIND       PRES   REMARKS
BISMARCK       SUNNY      8  -6  52 NW15G21   30.56F WCI  -9
DICKINSON      SUNNY      9  -3  58 NW9       30.46F WCI  -4
GARRISON         N/A      2  -7  66 NW14      30.53F WCI -16
HETTINGER ARPT SUNNY      9  -3  58 N9        30.46F WCI  -4
$$

NDZ004>008-012>016-024-026-027-054-262100-
NORTHEAST NORTH DAKOTA

CITY           SKY/WX    TMP DP  RH WIND       PRES   REMARKS
GRAND FORKS    MOSUNNY    8  -4  58 N14       30.54F WCI  -8
GRND FRKS AFB  SUNNY      8  -6  53 N12       30.54F WCI  -7
DEVILS LAKE    SUNNY    N/A N/A N/A MISG        N/A
$$

NDZ022-023-025-028>030-036>039-047>053-262100-
SOUTHEAST NORTH DAKOTA

CITY           SKY/WX    TMP DP  RH WIND       PRES   REMARKS
FARGO          SUNNY      5  -7  57 NW13      30.56F WCI -12
JAMESTOWN      SUNNY      2  -8  63 NW16      30.51F WCI -18
$$



USA.gov is the U.S. government's official web portal to all federal, state and local government web resources and services.